Tracking 18942 objects as of 16-Jan-2018
HD Live streaming from Space Station
objects crossing your sky now

DMSP 5D-3 F18 DEB

Track DMSP 5D-3 F18 DEB now!
10-day predictions


NORAD ID: 35953
Int'l Code: 2009-057C
Perigee: 837.0 km
Apogee: 842.6 km
Inclination: 98.6 °
Period: 101.6 minutes
Semi major axis: 7210 km
RCS: 0.056 m2 (small)
Launch date: October 18, 2009
Source: United States (US)
Launch site: AIR FORCE WESTERN TEST RANGE (AFWTR)

Note: This is SATELLITE DEBRIS
aabbcc
Your satellite tracking list
Your tracking list is empty




NASA's NSSDC Master Catalog

Two Line Element Set (TLE):
1 35953U 09057C   18015.59269608 +.00000321 +00000-0 +17834-3 0  9998
2 35953 098.6316 049.2111 0003905 026.5371 125.4824 14.17831983425865
Source of the keplerian elements: AFSPC